Location: Hannover
(52.3723°N, 9.7339°E)
Time: 14:45:59
(UTC+02:00)

ISS - Pass Details

Date: 22 March 2017
Orbit: 399 x 409 km, 51.6° (Epoch: 30 March)

Event Time Altitude Azimuth Distance (km) Brightness Sun altitude
Exits shadow 03:46:37 12° 133° (SE) 1,354 -1.1 -22.7°
Drops below altitude 10° 03:46:55 10° 131° (SE) 1,473 -0.8 -22.7°
Sets 03:49:04 0° 124° (SE) 2,333 0.3 -22.4°
